Year,Month,Day,Hour,Minute,Value (Times are PST for temperature in C)
2011,03,23,00,00,4.50
2011,03,23,00,01,4.40
2011,03,23,00,02,4.40
2011,03,23,00,03,4.40
2011,03,23,00,04,4.40
2011,03,23,00,05,4.40
2011,03,23,00,06,4.40
2011,03,23,00,07,4.30
2011,03,23,00,08,4.30
2011,03,23,00,09,4.30
2011,03,23,00,10,4.30
2011,03,23,00,11,4.30
2011,03,23,00,12,4.20
2011,03,23,00,13,4.20
2011,03,23,00,18,4.10
2011,03,23,00,19,4.10
2011,03,23,00,20,4.10
2011,03,23,00,21,4.10
2011,03,23,00,22,4.00
2011,03,23,00,23,4.00
2011,03,23,00,24,3.90
2011,03,23,00,25,3.90
2011,03,23,00,26,3.80
2011,03,23,00,27,3.80
2011,03,23,00,28,3.80
2011,03,23,00,29,3.70
2011,03,23,00,30,3.70
2011,03,23,00,31,3.60
2011,03,23,00,32,3.60
2011,03,23,00,33,3.50
2011,03,23,00,34,3.50
2011,03,23,00,35,3.50
2011,03,23,00,36,3.40
2011,03,23,00,37,3.40
2011,03,23,00,38,3.40
2011,03,23,00,39,3.30
2011,03,23,00,40,3.30
2011,03,23,00,41,3.30
2011,03,23,00,42,3.30
2011,03,23,00,43,3.30
2011,03,23,00,44,3.20
2011,03,23,00,45,3.20
2011,03,23,00,46,3.20
2011,03,23,00,47,3.20
2011,03,23,00,48,3.30
2011,03,23,00,49,3.20
2011,03,23,00,50,3.30
2011,03,23,00,51,3.30
2011,03,23,00,52,3.30
2011,03,23,00,53,3.20
2011,03,23,00,54,3.20
2011,03,23,00,55,3.20
2011,03,23,00,56,3.20
2011,03,23,00,57,3.10
2011,03,23,00,58,3.10
2011,03,23,00,59,3.10
2011,03,23,01,00,3.10
2011,03,23,01,01,3.10
2011,03,23,01,02,3.10
2011,03,23,01,03,3.10
2011,03,23,01,04,3.00
2011,03,23,01,05,3.00
2011,03,23,01,06,3.00
2011,03,23,01,07,3.00
2011,03,23,01,08,3.00
2011,03,23,01,09,3.00
2011,03,23,01,10,3.00
2011,03,23,01,11,3.00
2011,03,23,01,12,3.00
2011,03,23,01,13,2.90
2011,03,23,01,14,2.90
2011,03,23,01,15,2.90
2011,03,23,01,16,2.90
2011,03,23,01,17,2.90
2011,03,23,01,18,2.80
2011,03,23,01,19,2.80
2011,03,23,01,20,2.80
2011,03,23,01,21,2.80
2011,03,23,01,22,2.70
2011,03,23,01,23,2.70
2011,03,23,01,24,2.70
2011,03,23,01,25,2.70
2011,03,23,01,26,2.70
2011,03,23,01,27,2.60
2011,03,23,01,28,2.60
2011,03,23,01,29,2.60
2011,03,23,01,30,2.60
2011,03,23,01,31,2.60
2011,03,23,01,32,2.60
2011,03,23,01,33,2.60
2011,03,23,01,34,2.60
2011,03,23,01,35,2.60
2011,03,23,01,36,2.60
2011,03,23,01,37,2.60
2011,03,23,01,38,2.60
2011,03,23,01,39,2.50
2011,03,23,01,40,2.50
2011,03,23,01,41,2.40
2011,03,23,01,42,2.40
2011,03,23,01,43,2.40
2011,03,23,01,44,2.40
2011,03,23,01,45,2.40
2011,03,23,01,46,2.30
2011,03,23,01,47,2.30
2011,03,23,01,48,2.30
2011,03,23,01,49,2.30
2011,03,23,01,50,2.30
2011,03,23,01,51,2.30
2011,03,23,01,52,2.30
2011,03,23,01,53,2.20
2011,03,23,01,54,2.20
2011,03,23,01,55,2.20
2011,03,23,01,56,2.20
2011,03,23,01,57,2.10
2011,03,23,01,58,2.10
2011,03,23,01,59,2.10
2011,03,23,02,00,2.10
2011,03,23,02,01,2.10
2011,03,23,02,02,2.10
2011,03,23,02,03,2.10
2011,03,23,02,04,2.00
2011,03,23,02,05,2.00
2011,03,23,02,06,2.00
2011,03,23,02,07,2.00
2011,03,23,02,08,1.90
2011,03,23,02,09,1.90
2011,03,23,02,10,1.90
2011,03,23,02,11,1.90
2011,03,23,02,12,1.90
2011,03,23,02,13,1.90
2011,03,23,02,14,1.90
2011,03,23,02,15,1.90
2011,03,23,02,16,1.90
2011,03,23,02,17,1.80
2011,03,23,02,18,1.80
2011,03,23,02,19,1.80
2011,03,23,02,20,1.80
2011,03,23,02,21,1.80
2011,03,23,02,22,1.80
2011,03,23,02,23,1.70
2011,03,23,02,24,1.70
2011,03,23,02,25,1.70
2011,03,23,02,26,1.70
2011,03,23,02,27,1.70
2011,03,23,02,28,1.70
2011,03,23,02,29,1.60
2011,03,23,02,30,1.60
2011,03,23,02,31,1.60
2011,03,23,02,32,1.60
2011,03,23,02,33,1.60
2011,03,23,02,34,1.60
2011,03,23,02,35,1.60
2011,03,23,02,36,1.50
2011,03,23,02,37,1.50
2011,03,23,02,38,1.50
2011,03,23,02,39,1.50
2011,03,23,02,40,1.50
2011,03,23,02,41,1.50
2011,03,23,02,42,1.50
2011,03,23,02,43,1.50
2011,03,23,02,44,1.40
2011,03,23,02,45,1.50
2011,03,23,02,46,1.40
2011,03,23,02,47,1.40
2011,03,23,02,48,1.40
2011,03,23,02,49,1.40
2011,03,23,02,50,1.40
2011,03,23,02,51,1.40
2011,03,23,02,52,1.40
2011,03,23,02,53,1.40
2011,03,23,02,54,1.30
2011,03,23,02,55,1.30
2011,03,23,02,56,1.30
2011,03,23,02,57,1.30
2011,03,23,02,58,1.30
2011,03,23,02,59,1.30
2011,03,23,03,00,1.30
2011,03,23,03,01,1.30
2011,03,23,03,02,1.30
2011,03,23,03,03,1.30
2011,03,23,03,04,1.30
2011,03,23,03,05,1.30
2011,03,23,03,06,1.30
2011,03,23,03,07,1.30
2011,03,23,03,08,1.30
2011,03,23,03,09,1.30
2011,03,23,03,10,1.30
2011,03,23,03,11,1.30
2011,03,23,03,12,1.40
2011,03,23,03,13,1.40
2011,03,23,03,14,1.40
2011,03,23,03,15,1.40
2011,03,23,03,16,1.40
2011,03,23,03,17,1.40
2011,03,23,03,18,1.40
2011,03,23,03,19,1.40
2011,03,23,03,20,1.40
2011,03,23,03,21,1.40
2011,03,23,03,22,1.50
2011,03,23,03,23,1.50
2011,03,23,03,24,1.50
2011,03,23,03,25,1.50
2011,03,23,03,26,1.50
2011,03,23,03,27,1.60
2011,03,23,03,28,1.60
2011,03,23,03,29,1.60
2011,03,23,03,30,1.60
2011,03,23,03,31,1.60
2011,03,23,03,32,1.70
2011,03,23,03,33,1.70
2011,03,23,03,34,1.70
2011,03,23,03,35,1.80
2011,03,23,03,36,1.80
2011,03,23,03,37,1.80
2011,03,23,03,38,1.80
2011,03,23,03,39,1.80
2011,03,23,03,40,1.80
2011,03,23,03,41,1.80
2011,03,23,03,42,1.80
2011,03,23,03,43,1.80
2011,03,23,03,44,1.80
2011,03,23,03,45,1.80
2011,03,23,03,46,1.90
2011,03,23,03,47,1.90
2011,03,23,03,48,1.90
2011,03,23,03,49,1.90
2011,03,23,03,50,1.90
2011,03,23,03,51,1.90
2011,03,23,03,52,1.90
2011,03,23,03,53,1.90
2011,03,23,03,54,1.90
2011,03,23,03,55,1.90
2011,03,23,03,56,1.90
2011,03,23,03,57,1.90
2011,03,23,03,58,1.90
2011,03,23,03,59,1.90
2011,03,23,04,00,1.90
2011,03,23,04,01,1.90
2011,03,23,04,02,1.90
2011,03,23,04,03,1.90
2011,03,23,04,04,1.90
2011,03,23,04,05,2.00
2011,03,23,04,06,2.00
2011,03,23,04,07,2.00
2011,03,23,04,08,2.00
2011,03,23,04,09,2.10
2011,03,23,04,10,2.10
2011,03,23,04,11,2.10
2011,03,23,04,12,2.20
2011,03,23,04,13,2.20
2011,03,23,04,14,2.20
2011,03,23,04,15,2.20
2011,03,23,04,16,2.30
2011,03,23,04,17,2.30
2011,03,23,04,18,2.30
2011,03,23,04,19,2.30
2011,03,23,04,20,2.30
2011,03,23,04,21,2.30
2011,03,23,04,22,2.30
2011,03,23,04,23,2.30
2011,03,23,04,24,2.30
2011,03,23,04,25,2.30
2011,03,23,04,26,2.30
2011,03,23,04,27,2.40
2011,03,23,04,28,2.40
2011,03,23,04,29,2.40
2011,03,23,04,30,2.40
2011,03,23,04,31,2.40
2011,03,23,04,32,2.40
2011,03,23,04,33,2.40
2011,03,23,04,34,2.40
2011,03,23,04,35,2.40
2011,03,23,04,36,2.40
2011,03,23,04,37,2.40
2011,03,23,04,38,2.40
2011,03,23,04,39,2.50
2011,03,23,04,40,2.50
2011,03,23,04,41,2.50
2011,03,23,04,42,2.50
2011,03,23,04,43,2.50
2011,03,23,04,44,2.50
2011,03,23,04,45,2.50
2011,03,23,04,46,2.50
2011,03,23,04,47,2.50
2011,03,23,04,48,2.50
2011,03,23,04,49,2.60
2011,03,23,04,50,2.60
2011,03,23,04,51,2.60
2011,03,23,04,52,2.60
2011,03,23,04,53,2.70
2011,03,23,04,54,2.70
2011,03,23,04,55,2.70
2011,03,23,04,56,2.70
2011,03,23,04,57,2.70
2011,03,23,04,58,2.70
2011,03,23,04,59,2.70
2011,03,23,05,00,2.70
2011,03,23,05,01,2.80
2011,03,23,05,02,2.80
2011,03,23,05,03,2.80
2011,03,23,05,04,2.80
2011,03,23,05,05,2.80
2011,03,23,05,06,2.80
2011,03,23,05,07,2.70
2011,03,23,05,08,2.70
2011,03,23,05,09,2.70
2011,03,23,05,10,2.70
2011,03,23,05,11,2.70
2011,03,23,05,12,2.70
2011,03,23,05,13,2.70
2011,03,23,05,14,2.70
2011,03,23,05,15,2.60
2011,03,23,05,16,2.60
2011,03,23,05,17,2.60
2011,03,23,05,18,2.60
2011,03,23,05,19,2.50
2011,03,23,05,20,2.50
2011,03,23,05,21,2.50
2011,03,23,05,22,2.40
2011,03,23,05,23,2.40
2011,03,23,05,24,2.30
2011,03,23,05,25,2.30
2011,03,23,05,26,2.30
2011,03,23,05,27,2.20
2011,03,23,05,28,2.20
2011,03,23,05,29,2.20
2011,03,23,05,30,2.20
2011,03,23,05,31,2.20
2011,03,23,05,32,2.20
2011,03,23,05,33,2.20
2011,03,23,05,34,2.20
2011,03,23,05,35,2.20
2011,03,23,05,36,2.20
2011,03,23,05,37,2.20
2011,03,23,05,38,2.20
2011,03,23,05,39,2.20
2011,03,23,05,40,2.30
2011,03,23,05,41,2.30
2011,03,23,05,42,2.30
2011,03,23,05,43,2.30
2011,03,23,05,44,2.30
2011,03,23,05,45,2.30
2011,03,23,05,46,2.30
2011,03,23,05,47,2.30
2011,03,23,05,48,2.30
2011,03,23,05,49,2.30
2011,03,23,05,50,2.30
2011,03,23,05,51,2.30
2011,03,23,05,52,2.30
2011,03,23,05,53,2.30
2011,03,23,05,54,2.30
2011,03,23,05,55,2.30
2011,03,23,05,56,2.20
2011,03,23,05,57,2.20
2011,03,23,05,58,2.20
2011,03,23,05,59,2.20
2011,03,23,06,00,2.20
2011,03,23,06,01,2.20
2011,03,23,06,02,2.20
2011,03,23,06,03,2.20
2011,03,23,06,04,2.20
2011,03,23,06,05,2.20
2011,03,23,06,06,2.20
2011,03,23,06,07,2.20
2011,03,23,06,08,2.20
2011,03,23,06,09,2.20
2011,03,23,06,10,2.20
2011,03,23,06,11,2.20
2011,03,23,06,12,2.20
2011,03,23,06,13,2.20
2011,03,23,06,14,2.20
2011,03,23,06,15,2.20
2011,03,23,06,16,2.20
2011,03,23,06,17,2.20
2011,03,23,06,18,2.30
2011,03,23,06,19,2.30
2011,03,23,06,20,2.30
2011,03,23,06,21,2.30
2011,03,23,06,22,2.30
2011,03,23,06,23,2.40
2011,03,23,06,24,2.40
2011,03,23,06,25,2.40
2011,03,23,06,26,2.40
2011,03,23,06,27,2.40
2011,03,23,06,28,2.40
2011,03,23,06,29,2.40
2011,03,23,06,30,2.50
2011,03,23,06,31,2.50
2011,03,23,06,32,2.50
2011,03,23,06,33,2.50
2011,03,23,06,34,2.60
2011,03,23,06,35,2.60
2011,03,23,06,36,2.60
2011,03,23,06,37,2.60
2011,03,23,06,38,2.70
2011,03,23,06,39,2.70
2011,03,23,06,40,2.70
2011,03,23,06,41,2.70
2011,03,23,06,42,2.60
2011,03,23,06,43,2.60
2011,03,23,06,44,2.60
2011,03,23,06,45,2.60
2011,03,23,06,46,2.60
2011,03,23,06,47,2.60
2011,03,23,06,48,2.60
2011,03,23,06,49,2.60
2011,03,23,06,50,2.60
2011,03,23,06,51,2.70
2011,03,23,06,52,2.70
2011,03,23,06,53,2.70
2011,03,23,06,54,2.70
2011,03,23,06,55,2.70
2011,03,23,06,56,2.70
2011,03,23,06,57,2.70
2011,03,23,06,58,2.70
2011,03,23,06,59,2.70
2011,03,23,07,00,2.70
2011,03,23,07,01,2.70
2011,03,23,07,02,2.70
2011,03,23,07,03,2.70
2011,03,23,07,04,2.70
2011,03,23,07,05,2.70
2011,03,23,07,06,2.80
2011,03,23,07,07,2.80
2011,03,23,07,08,2.80
2011,03,23,07,09,2.80
2011,03,23,07,10,2.80
2011,03,23,07,11,2.80
2011,03,23,07,12,2.80
2011,03,23,07,13,2.80
2011,03,23,07,14,2.80
2011,03,23,07,15,2.80
2011,03,23,07,16,2.80
2011,03,23,07,17,2.80
2011,03,23,07,18,2.80
2011,03,23,07,19,2.80
2011,03,23,07,20,2.80
2011,03,23,07,21,2.80
2011,03,23,07,22,2.80
2011,03,23,07,23,2.80
2011,03,23,07,24,2.80
2011,03,23,07,25,2.90
2011,03,23,07,26,2.90
2011,03,23,07,27,2.90
2011,03,23,07,28,2.90
2011,03,23,07,29,2.90
2011,03,23,07,30,2.90
2011,03,23,07,31,2.90
2011,03,23,07,32,3.00
2011,03,23,07,33,3.00
2011,03,23,07,34,3.00
2011,03,23,07,35,3.10
2011,03,23,07,36,3.10
2011,03,23,07,37,3.10
2011,03,23,07,38,3.10
2011,03,23,07,39,3.10
2011,03,23,07,40,3.10
2011,03,23,07,41,3.10
2011,03,23,07,42,3.10
2011,03,23,07,43,3.10
2011,03,23,07,44,3.10
2011,03,23,07,45,3.10
2011,03,23,07,46,3.10
2011,03,23,07,47,3.10
2011,03,23,07,48,3.10
2011,03,23,07,49,3.10
2011,03,23,07,50,3.10
2011,03,23,07,51,3.10
2011,03,23,07,52,3.10
2011,03,23,07,53,3.10
2011,03,23,07,54,3.10
2011,03,23,07,55,3.10
2011,03,23,07,56,3.10
2011,03,23,07,57,3.20
2011,03,23,07,58,3.20
2011,03,23,07,59,3.20
2011,03,23,08,00,3.30
2011,03,23,08,01,3.30
2011,03,23,08,02,3.30
2011,03,23,08,03,3.40
2011,03,23,08,04,3.40
2011,03,23,08,05,3.40
2011,03,23,08,06,3.50
2011,03,23,08,07,3.50
2011,03,23,08,08,3.60
2011,03,23,08,09,3.60
2011,03,23,08,10,3.60
2011,03,23,08,11,3.60
2011,03,23,08,12,3.70
2011,03,23,08,13,3.70
2011,03,23,08,14,3.70
2011,03,23,08,15,3.80
2011,03,23,08,16,3.80
2011,03,23,08,17,3.80
2011,03,23,08,18,3.90
2011,03,23,08,19,3.90
2011,03,23,08,20,3.90
2011,03,23,08,21,4.00
2011,03,23,08,22,4.00
2011,03,23,08,23,4.10
2011,03,23,08,24,4.10
2011,03,23,08,25,4.10
2011,03,23,08,26,4.20
2011,03,23,08,27,4.20
2011,03,23,08,28,4.20
2011,03,23,08,29,4.30
2011,03,23,08,30,4.30
2011,03,23,08,31,4.30
2011,03,23,08,32,4.40
2011,03,23,08,33,4.50
2011,03,23,08,34,4.60
2011,03,23,08,35,4.60
2011,03,23,08,36,4.70
2011,03,23,08,37,4.80
2011,03,23,08,38,4.80
2011,03,23,08,39,4.90
2011,03,23,08,40,4.90
2011,03,23,08,41,5.00
2011,03,23,08,42,5.10
2011,03,23,08,43,5.10
2011,03,23,08,44,5.10
2011,03,23,08,45,5.10
2011,03,23,08,46,5.20
2011,03,23,08,47,5.30
2011,03,23,08,48,5.30
2011,03,23,08,49,5.30
2011,03,23,08,50,5.40
2011,03,23,08,51,5.50
2011,03,23,08,52,5.50
2011,03,23,08,53,5.60
2011,03,23,08,54,5.60
2011,03,23,08,55,5.70
2011,03,23,08,56,5.70
2011,03,23,08,57,5.80
2011,03,23,08,58,5.80
2011,03,23,08,59,5.80
2011,03,23,09,00,5.80
2011,03,23,09,01,5.90
2011,03,23,09,02,5.90
2011,03,23,09,03,6.00
2011,03,23,09,04,6.10
2011,03,23,09,05,6.10
2011,03,23,09,06,6.20
2011,03,23,09,07,6.20
2011,03,23,09,08,6.30
2011,03,23,09,09,6.30
2011,03,23,09,10,6.40
2011,03,23,09,11,6.50
2011,03,23,09,12,6.50
2011,03,23,09,13,6.60
2011,03,23,09,14,6.70
2011,03,23,09,15,6.70
2011,03,23,09,16,6.80
2011,03,23,09,17,6.80
2011,03,23,09,18,6.80
2011,03,23,09,19,6.90
2011,03,23,09,20,6.90
2011,03,23,09,21,6.90
2011,03,23,09,22,7.00
2011,03,23,09,23,7.00
2011,03,23,09,24,7.10
2011,03,23,09,25,7.20
2011,03,23,09,26,7.20
2011,03,23,09,27,7.30
2011,03,23,09,28,7.30
2011,03,23,09,29,7.30
2011,03,23,09,30,7.30
2011,03,23,09,31,7.30
2011,03,23,09,32,7.30
2011,03,23,09,33,7.40
2011,03,23,09,34,7.40
2011,03,23,09,35,7.40
2011,03,23,09,36,7.40
2011,03,23,09,37,7.50
2011,03,23,09,38,7.50
2011,03,23,09,39,7.50
2011,03,23,09,40,7.50
2011,03,23,09,41,7.50
2011,03,23,09,42,7.50
2011,03,23,09,43,7.60
2011,03,23,09,44,7.50
2011,03,23,09,45,7.60
2011,03,23,09,46,7.60
2011,03,23,09,47,7.60
2011,03,23,09,48,7.60
2011,03,23,09,49,7.70
2011,03,23,09,50,7.70
2011,03,23,09,51,7.80
2011,03,23,09,52,7.70
2011,03,23,09,53,7.70
2011,03,23,09,54,7.70
2011,03,23,09,55,7.60
2011,03,23,09,56,7.60
2011,03,23,09,57,7.60
2011,03,23,09,58,7.70
2011,03,23,09,59,7.70
2011,03,23,10,00,7.70
2011,03,23,10,01,7.70
2011,03,23,10,02,7.70
2011,03,23,10,03,7.70
2011,03,23,10,04,7.70
2011,03,23,10,05,7.70
2011,03,23,10,06,7.70
2011,03,23,10,07,7.70
2011,03,23,10,08,7.70
2011,03,23,10,09,7.70
2011,03,23,10,10,7.80
2011,03,23,10,11,7.80
2011,03,23,10,12,7.80
2011,03,23,10,13,7.80
2011,03,23,10,14,7.90
2011,03,23,10,15,7.90
2011,03,23,10,16,7.80
2011,03,23,10,17,7.80
2011,03,23,10,18,7.90
2011,03,23,10,19,7.90
2011,03,23,10,20,7.90
2011,03,23,10,21,7.90
2011,03,23,10,22,7.80
2011,03,23,10,23,7.80
2011,03,23,10,24,7.70
2011,03,23,10,25,7.70
2011,03,23,10,26,7.70
2011,03,23,10,27,7.70
2011,03,23,10,28,7.70
2011,03,23,10,29,7.70
2011,03,23,10,30,7.80
2011,03,23,10,31,7.80
2011,03,23,10,32,7.90
2011,03,23,10,33,7.90
2011,03,23,10,34,7.90
2011,03,23,10,35,7.90
2011,03,23,10,36,8.00
2011,03,23,10,37,8.00
2011,03,23,10,38,8.10
2011,03,23,10,39,8.10
2011,03,23,10,40,8.10
2011,03,23,10,41,8.10
2011,03,23,10,42,8.10
2011,03,23,10,43,8.10
2011,03,23,10,44,8.10
2011,03,23,10,45,8.00
2011,03,23,10,46,8.00
2011,03,23,10,47,8.00
2011,03,23,10,48,8.00
2011,03,23,10,49,7.90
2011,03,23,10,50,7.90
2011,03,23,10,51,7.90
2011,03,23,10,52,8.00
2011,03,23,10,53,8.00
2011,03,23,10,54,8.10
2011,03,23,10,55,8.10
2011,03,23,10,56,8.20
2011,03,23,10,57,8.20
2011,03,23,10,58,8.30
2011,03,23,10,59,8.30
2011,03,23,11,00,8.40
2011,03,23,11,01,8.40
2011,03,23,11,02,8.40
2011,03,23,11,03,8.40
2011,03,23,11,04,8.40
2011,03,23,11,05,8.40
2011,03,23,11,06,8.40
2011,03,23,11,07,8.50
2011,03,23,11,08,8.50
2011,03,23,11,09,8.40
2011,03,23,11,10,8.40
2011,03,23,11,11,8.40
2011,03,23,11,12,8.40
2011,03,23,11,13,8.50
2011,03,23,11,14,8.60
2011,03,23,11,15,8.70
2011,03,23,11,16,8.80
2011,03,23,11,17,8.80
2011,03,23,11,18,8.80
2011,03,23,11,19,8.80
2011,03,23,11,20,8.80
2011,03,23,11,21,8.70
2011,03,23,11,22,8.70
2011,03,23,11,23,8.80
2011,03,23,11,24,8.80
2011,03,23,11,25,8.80
2011,03,23,11,26,8.80
2011,03,23,11,27,8.80
2011,03,23,11,28,8.80
2011,03,23,11,29,8.80
2011,03,23,11,30,8.80
2011,03,23,11,31,8.80
2011,03,23,11,32,8.70
2011,03,23,11,33,8.70
2011,03,23,11,34,8.60
2011,03,23,11,35,8.70
2011,03,23,11,36,8.80
2011,03,23,11,37,8.80
2011,03,23,11,38,8.90
2011,03,23,11,39,9.00
2011,03,23,11,40,9.10
2011,03,23,11,41,9.20
2011,03,23,11,42,9.30
2011,03,23,11,43,9.30
2011,03,23,11,44,9.30
2011,03,23,11,45,9.30
2011,03,23,11,46,9.30
2011,03,23,11,47,9.30
2011,03,23,11,48,9.20
2011,03,23,11,49,9.20
2011,03,23,11,50,9.20
2011,03,23,11,51,9.20
2011,03,23,11,52,9.00
2011,03,23,11,53,8.90
2011,03,23,11,54,9.00
2011,03,23,11,55,9.00
2011,03,23,11,56,9.10
2011,03,23,11,57,9.10
2011,03,23,11,58,9.20
2011,03,23,11,59,9.20
2011,03,23,12,00,9.20
2011,03,23,12,01,9.20
2011,03,23,12,02,9.30
2011,03,23,12,03,9.30
2011,03,23,12,04,9.40
2011,03,23,12,05,9.50
2011,03,23,12,06,9.60
2011,03,23,12,07,9.70
2011,03,23,12,08,9.80
2011,03,23,12,09,9.90
2011,03,23,12,10,10.00
2011,03,23,12,11,10.00
2011,03,23,12,12,10.00
2011,03,23,12,13,10.00
2011,03,23,12,14,10.00
2011,03,23,12,15,10.00
2011,03,23,12,16,10.10
2011,03,23,12,17,10.10
2011,03,23,12,18,10.00
2011,03,23,12,19,9.90
2011,03,23,12,20,9.90
2011,03,23,12,21,9.90
2011,03,23,12,22,9.90
2011,03,23,12,23,9.90
2011,03,23,12,24,9.90
2011,03,23,12,25,9.90
2011,03,23,12,26,9.80
2011,03,23,12,27,9.80
2011,03,23,12,28,9.80
2011,03,23,12,29,9.80
2011,03,23,12,30,9.90
2011,03,23,12,31,10.00
2011,03,23,12,32,10.10
2011,03,23,12,33,10.20
2011,03,23,12,34,10.30
2011,03,23,12,35,10.50
2011,03,23,12,36,10.50
2011,03,23,12,37,10.60
2011,03,23,12,38,10.50
2011,03,23,12,39,10.50
2011,03,23,12,40,10.40
2011,03,23,12,41,10.30
2011,03,23,12,42,10.20
2011,03,23,12,43,10.20
2011,03,23,12,44,10.20
2011,03,23,12,45,10.20
2011,03,23,12,46,10.30
2011,03,23,12,47,10.40
2011,03,23,12,48,10.40
2011,03,23,12,49,10.30
2011,03,23,12,50,10.30
2011,03,23,12,51,10.30
2011,03,23,12,52,10.20
2011,03,23,12,53,10.10
2011,03,23,12,54,10.10
2011,03,23,12,55,10.10
2011,03,23,12,56,10.10
2011,03,23,12,57,10.10
2011,03,23,12,58,10.10
2011,03,23,12,59,10.20
2011,03,23,13,00,10.20
2011,03,23,13,01,10.30
2011,03,23,13,02,10.40
2011,03,23,13,03,10.50
2011,03,23,13,04,10.60
2011,03,23,13,05,10.70
2011,03,23,13,06,10.70
2011,03,23,13,07,10.80
2011,03,23,13,08,10.80
2011,03,23,13,09,10.80
2011,03,23,13,10,10.80
2011,03,23,13,11,10.80
2011,03,23,13,12,10.80
2011,03,23,13,13,10.80
2011,03,23,13,14,10.80
2011,03,23,13,15,10.80
2011,03,23,13,16,10.90
2011,03,23,13,17,10.90
2011,03,23,13,18,10.90
2011,03,23,13,19,10.90
2011,03,23,13,20,10.80
2011,03,23,13,21,10.80
2011,03,23,13,22,10.90
2011,03,23,13,23,10.90
2011,03,23,13,24,10.90
2011,03,23,13,25,11.00
2011,03,23,13,26,11.10
2011,03,23,13,27,11.10
2011,03,23,13,28,10.90
2011,03,23,13,29,10.90
2011,03,23,13,30,10.80
2011,03,23,13,31,10.90
2011,03,23,13,32,11.00
2011,03,23,13,33,11.00
2011,03,23,13,34,11.10
2011,03,23,13,35,11.10
2011,03,23,13,36,11.10
2011,03,23,13,37,11.10
2011,03,23,13,38,11.10
2011,03,23,13,39,11.00
2011,03,23,13,40,10.90
2011,03,23,13,41,10.90
2011,03,23,13,42,10.90
2011,03,23,13,43,10.90
2011,03,23,13,44,10.90
2011,03,23,13,45,10.90
2011,03,23,13,46,11.00
2011,03,23,13,47,11.00
2011,03,23,13,48,11.10
2011,03,23,13,49,11.00
2011,03,23,13,50,11.00
2011,03,23,13,51,10.90
2011,03,23,13,52,10.90
2011,03,23,13,53,10.90
2011,03,23,13,54,10.90
2011,03,23,13,55,10.90
2011,03,23,13,56,11.00
2011,03,23,13,57,11.00
2011,03,23,13,58,11.00
2011,03,23,13,59,11.10
2011,03,23,14,00,11.20
2011,03,23,14,01,11.20
2011,03,23,14,02,11.20
2011,03,23,14,03,11.20
2011,03,23,14,04,11.10
2011,03,23,14,05,11.10
2011,03,23,14,06,11.20
2011,03,23,14,07,11.20
2011,03,23,14,08,11.20
2011,03,23,14,09,11.30
2011,03,23,14,10,11.40
2011,03,23,14,11,11.30
2011,03,23,14,12,11.40
2011,03,23,14,13,11.40
2011,03,23,14,14,11.50
2011,03,23,14,15,11.50
2011,03,23,14,16,11.50
2011,03,23,14,17,11.40
2011,03,23,14,18,11.40
2011,03,23,14,19,11.40
2011,03,23,14,20,11.30
2011,03,23,14,21,11.30
2011,03,23,14,22,11.20
2011,03,23,14,23,11.20
2011,03,23,14,24,11.30
2011,03,23,14,25,11.30
2011,03,23,14,26,11.20
2011,03,23,14,27,11.20
2011,03,23,14,28,11.20
2011,03,23,14,29,11.20
2011,03,23,14,30,11.20
2011,03,23,14,31,11.20
2011,03,23,14,32,11.20
2011,03,23,14,33,11.20
2011,03,23,14,34,11.30
2011,03,23,14,35,11.40
2011,03,23,14,36,11.50
2011,03,23,14,37,11.40
2011,03,23,14,38,11.40
2011,03,23,14,39,11.40
2011,03,23,14,40,11.50
2011,03,23,14,41,11.50
2011,03,23,14,42,11.50
2011,03,23,14,43,11.60
2011,03,23,14,44,11.60
2011,03,23,14,45,11.70
2011,03,23,14,46,11.80
2011,03,23,14,47,11.90
2011,03,23,14,48,12.00
2011,03,23,14,49,12.00
2011,03,23,14,50,12.10
2011,03,23,14,51,12.10
2011,03,23,14,52,12.00
2011,03,23,14,53,11.90
2011,03,23,14,54,11.90
2011,03,23,14,55,11.90
2011,03,23,14,56,11.90
2011,03,23,14,57,11.90
2011,03,23,14,58,11.90
2011,03,23,14,59,11.90
2011,03,23,15,00,11.90
2011,03,23,15,01,11.90
2011,03,23,15,02,11.90
2011,03,23,15,03,11.90
2011,03,23,15,04,12.00
2011,03,23,15,05,12.00
2011,03,23,15,06,12.00
2011,03,23,15,07,11.90
2011,03,23,15,08,11.80
2011,03,23,15,09,11.80
2011,03,23,15,10,11.80
2011,03,23,15,11,11.90
2011,03,23,15,12,11.90
2011,03,23,15,13,11.90
2011,03,23,15,14,11.90
2011,03,23,15,15,11.90
2011,03,23,15,16,12.00
2011,03,23,15,17,12.00
2011,03,23,15,18,12.00
2011,03,23,15,19,12.00
2011,03,23,15,20,12.10
2011,03,23,15,21,12.00
2011,03,23,15,22,12.00
2011,03,23,15,23,11.90
2011,03,23,15,24,11.90
2011,03,23,15,25,11.80
2011,03,23,15,26,11.80
2011,03,23,15,27,11.90
2011,03,23,15,28,11.90
2011,03,23,15,29,11.90
2011,03,23,15,30,12.00
2011,03,23,15,31,12.00
2011,03,23,15,32,12.20
2011,03,23,15,33,12.30
2011,03,23,15,34,12.30
2011,03,23,15,35,12.30
2011,03,23,15,36,12.30
2011,03,23,15,37,12.20
2011,03,23,15,38,12.10
2011,03,23,15,39,12.00
2011,03,23,15,40,12.00
2011,03,23,15,41,11.90
2011,03,23,15,42,11.90
2011,03,23,15,43,11.90
2011,03,23,15,44,11.90
2011,03,23,15,45,12.00
2011,03,23,15,46,12.10
2011,03,23,15,47,12.10
2011,03,23,15,48,12.20
2011,03,23,15,49,12.20
2011,03,23,15,50,12.20
2011,03,23,15,51,12.20
2011,03,23,15,52,12.20
2011,03,23,15,53,12.20
2011,03,23,15,54,12.10
2011,03,23,15,55,12.10
2011,03,23,15,56,12.10
2011,03,23,15,57,12.10
2011,03,23,15,58,12.10
2011,03,23,15,59,12.10
2011,03,23,16,00,12.10
2011,03,23,16,01,12.10
2011,03,23,16,02,12.20
2011,03,23,16,03,12.20
2011,03,23,16,04,12.30
2011,03,23,16,05,12.30
2011,03,23,16,06,12.40
2011,03,23,16,07,12.30
2011,03,23,16,08,12.30
2011,03,23,16,09,12.30
2011,03,23,16,10,12.30
2011,03,23,16,11,12.30
2011,03,23,16,12,12.30
2011,03,23,16,13,12.30
2011,03,23,16,14,12.30
2011,03,23,16,15,12.30
2011,03,23,16,16,12.30
2011,03,23,16,17,12.20
2011,03,23,16,18,12.30
2011,03,23,16,19,12.30
2011,03,23,16,20,12.30
2011,03,23,16,21,12.30
2011,03,23,16,22,12.30
2011,03,23,16,23,12.40
2011,03,23,16,24,12.30
2011,03,23,16,25,12.30
2011,03,23,16,26,12.30
2011,03,23,16,27,12.30
2011,03,23,16,28,12.20
2011,03,23,16,29,12.20
2011,03,23,16,30,12.30
2011,03,23,16,31,12.40
2011,03,23,16,32,12.50
2011,03,23,16,33,12.50
2011,03,23,16,34,12.60
2011,03,23,16,35,12.70
2011,03,23,16,36,12.70
2011,03,23,16,37,12.60
2011,03,23,16,38,12.60
2011,03,23,16,39,12.60
2011,03,23,16,40,12.60
2011,03,23,16,41,12.60
2011,03,23,16,42,12.60
2011,03,23,16,43,12.60
2011,03,23,16,44,12.60
2011,03,23,16,45,12.70
2011,03,23,16,46,12.70
2011,03,23,16,47,12.70
2011,03,23,16,48,12.60
2011,03,23,16,49,12.60
2011,03,23,16,50,12.60
2011,03,23,16,51,12.60
2011,03,23,16,52,12.60
2011,03,23,16,53,12.60
2011,03,23,16,54,12.60
2011,03,23,16,55,12.50
2011,03,23,16,56,12.60
2011,03,23,16,57,12.60
2011,03,23,16,58,12.60
2011,03,23,16,59,12.60
2011,03,23,17,00,12.60
2011,03,23,17,01,12.60
2011,03,23,17,02,12.60
2011,03,23,17,03,12.60
2011,03,23,17,04,12.50
2011,03,23,17,05,12.50
2011,03,23,17,06,12.40
2011,03,23,17,07,12.30
2011,03,23,17,08,12.30
2011,03,23,17,09,12.30
2011,03,23,17,10,12.30
2011,03,23,17,11,12.30
2011,03,23,17,12,12.30
2011,03,23,17,13,12.30
2011,03,23,17,14,12.30
2011,03,23,17,15,12.30
2011,03,23,17,16,12.30
2011,03,23,17,17,12.30
2011,03,23,17,18,12.40
2011,03,23,17,19,12.40
2011,03,23,17,20,12.40
2011,03,23,17,21,12.40
2011,03,23,17,22,12.50
2011,03,23,17,23,12.50
2011,03,23,17,24,12.60
2011,03,23,17,25,12.60
2011,03,23,17,26,12.60
2011,03,23,17,27,12.60
2011,03,23,17,28,12.60
2011,03,23,17,29,12.60
2011,03,23,17,30,12.60
2011,03,23,17,31,12.60
2011,03,23,17,32,12.60
2011,03,23,17,33,12.60
2011,03,23,17,34,12.50
2011,03,23,17,35,12.50
2011,03,23,17,36,12.50
2011,03,23,17,37,12.40
2011,03,23,17,38,12.40
2011,03,23,17,39,12.40
2011,03,23,17,40,12.40
2011,03,23,17,41,12.30
2011,03,23,17,42,12.40
2011,03,23,17,43,12.40
2011,03,23,17,44,12.40
2011,03,23,17,45,12.40
2011,03,23,17,46,12.40
2011,03,23,17,47,12.30
2011,03,23,17,48,12.30
2011,03,23,17,49,12.30
2011,03,23,17,50,12.30
2011,03,23,17,51,12.20
2011,03,23,17,52,12.20
2011,03,23,17,53,12.20
2011,03,23,17,54,12.20
2011,03,23,17,55,12.20